TimePDT,TemperatureF,Dew PointF,Humidity,Sea Level PressureIn,VisibilityMPH,Wind Direction,Wind SpeedMPH,Gust SpeedMPH,PrecipitationIn,Events,Conditions,WindDirDegrees,DateUTC
12:55 AM,43.0,36.0,76,30.10,10.0,South,3.5,-,N/A,,Partly Cloudy,180,2013-03-29 07:55:00
1:55 AM,42.1,35.1,76,30.12,10.0,Calm,Calm,-,N/A,,Clear,0,2013-03-29 08:55:00
2:55 AM,41.0,34.0,76,30.12,10.0,West,3.5,-,N/A,,Clear,280,2013-03-29 09:55:00
3:55 AM,39.9,33.1,77,30.12,10.0,Calm,Calm,-,N/A,,Clear,0,2013-03-29 10:55:00
4:55 AM,37.0,33.1,86,30.14,10.0,Calm,Calm,-,N/A,,Clear,0,2013-03-29 11:55:00
5:55 AM,39.0,30.9,73,30.17,10.0,NW,5.8,-,N/A,,Clear,310,2013-03-29 12:55:00
6:55 AM,37.9,30.9,76,30.19,10.0,West,3.5,-,N/A,,Scattered Clouds,280,2013-03-29 13:55:00
7:55 AM,37.9,32.0,79,30.20,10.0,Calm,Calm,-,N/A,,Scattered Clouds,0,2013-03-29 14:55:00
8:55 AM,42.1,33.1,70,30.20,10.0,Calm,Calm,-,N/A,,Mostly Cloudy,0,2013-03-29 15:55:00
9:55 AM,48.9,34.0,56,30.18,10.0,Calm,Calm,-,N/A,,Mostly Cloudy,0,2013-03-29 16:55:00
10:55 AM,54.0,35.1,49,30.16,10.0,Calm,Calm,-,N/A,,Mostly Cloudy,0,2013-03-29 17:55:00
11:55 AM,59.0,35.1,41,30.14,10.0,Calm,Calm,-,N/A,,Mostly Cloudy,0,2013-03-29 18:55:00
12:55 PM,63.0,36.0,37,30.11,10.0,NE,4.6,-,N/A,,Mostly Cloudy,50,2013-03-29 19:55:00
1:55 PM,68.0,33.1,27,30.07,10.0,Variable,4.6,-,N/A,,Mostly Cloudy,0,2013-03-29 20:55:00
2:55 PM,68.0,28.9,23,30.05,10.0,Variable,4.6,-,N/A,,Mostly Cloudy,0,2013-03-29 21:55:00
3:55 PM,72.0,27.0,19,30.02,10.0,South,15.0,19.6,N/A,,Mostly Cloudy,180,2013-03-29 22:55:00
4:55 PM,69.1,25.0,19,30.03,10.0,SSW,8.1,-,N/A,,Mostly Cloudy,200,2013-03-29 23:55:00
5:55 PM,68.0,23.0,18,30.02,10.0,Calm,Calm,-,N/A,,Scattered Clouds,0,2013-03-30 00:55:00
6:55 PM,64.9,28.0,25,30.04,10.0,West,18.4,-,N/A,,Scattered Clouds,280,2013-03-30 01:55:00
7:55 PM,63.0,27.0,26,30.06,10.0,Variable,3.5,-,N/A,,Scattered Clouds,0,2013-03-30 02:55:00
8:55 PM,61.0,28.9,30,30.09,10.0,WNW,8.1,-,N/A,,Scattered Clouds,300,2013-03-30 03:55:00
9:55 PM,57.9,30.9,36,30.10,10.0,Calm,Calm,-,N/A,,Scattered Clouds,0,2013-03-30 04:55:00
10:55 PM,55.0,30.9,40,30.10,10.0,West,5.8,-,N/A,,Partly Cloudy,280,2013-03-30 05:55:00
11:55 PM,53.1,30.9,43,30.09,10.0,WSW,4.6,-,N/A,,Partly Cloudy,250,2013-03-30 06:55:00